DAL2941 KMCO-MKJS

Flight info

Callsign DAL2941
Flight time 1h 37m
Altitude 39000
Route DDANY3 VALKA DCT EBAYY Q97 TOVAR Y297 URSUS UL780 TASNO UM221 NIBEO DCT ADSEL LENAR7
Aircraft A20N/M-SDE2E3FGHIRWXY/LB1

Departure

Time 2026-04-26 19:05
Airport Orlando International Airport (KMCO)

Arrival

Time 2026-04-26 20:42
Airport Sangster International Airport (MKJS)
Time Latitude Longitude Altitude Speed Heading
2026-04-26 18:49 28.42562 -81.30097 97 ft 0 kts 57°
2026-04-26 18:56 28.42553 -81.30113 97 ft 3 kts 57°
2026-04-26 18:56 28.42543 -81.30131 98 ft 3 kts 57°
2026-04-26 18:56 28.42533 -81.30148 97 ft 3 kts 80°
2026-04-26 18:56 28.42537 -81.30166 96 ft 2 kts 148°
2026-04-26 18:57 28.42538 -81.30166 96 ft 0 kts 148°
2026-04-26 19:00 28.42514 -81.30155 97 ft 10 kts 163°
2026-04-26 19:00 28.42446 -81.30104 97 ft 14 kts 123°
2026-04-26 19:01 28.42437 -81.29988 97 ft 17 kts 71°
2026-04-26 19:01 28.42527 -81.29890 97 ft 20 kts 17°
2026-04-26 19:01 28.42674 -81.29884 100 ft 23 kts 360°
2026-04-26 19:01 28.42834 -81.29885 100 ft 14 kts 359°
2026-04-26 19:02 28.42905 -81.29865 98 ft 10 kts 52°
2026-04-26 19:02 28.42925 -81.29822 99 ft 9 kts 47°
2026-04-26 19:02 28.42985 -81.29800 99 ft 12 kts
2026-04-26 19:02 28.43060 -81.29800 99 ft 20 kts 359°
2026-04-26 19:03 28.43297 -81.29803 99 ft 27 kts 359°
2026-04-26 19:03 28.43527 -81.29803 98 ft 15 kts 24°
2026-04-26 19:03 28.43547 -81.29750 98 ft 3 kts 83°
2026-04-26 19:03 28.43550 -81.29706 99 ft 9 kts 88°
2026-04-26 19:04 28.43551 -81.29656 99 ft 9 kts 88°
2026-04-26 19:04 28.43537 -81.29598 100 ft 7 kts 134°
2026-04-26 19:04 28.43498 -81.29588 102 ft 7 kts 175°
2026-04-26 19:04 28.43404 -81.29586 101 ft 24 kts 179°
2026-04-26 19:05 28.41988 -81.29568 101 ft 150 kts 180°
2026-04-26 19:05 28.40907 -81.29556 493 ft 153 kts 179°
2026-04-26 19:05 28.39843 -81.29517 953 ft 157 kts 182°
2026-04-26 19:06 28.39078 -81.29451 1147 ft 171 kts 178°
2026-04-26 19:06 28.37858 -81.29044 1304 ft 203 kts 159°
2026-04-26 19:06 28.36570 -81.28197 1747 ft 222 kts 152°
2026-04-26 19:06 28.35321 -81.27072 2157 ft 243 kts 134°
2026-04-26 19:07 28.34534 -81.25261 2535 ft 269 kts 107°
2026-04-26 19:07 28.34135 -81.23146 3291 ft 276 kts 102°
2026-04-26 19:07 28.33800 -81.21006 4214 ft 277 kts 101°
2026-04-26 19:07 28.33457 -81.18837 5026 ft 281 kts 101°
2026-04-26 19:08 28.33099 -81.16631 5813 ft 286 kts 102°
2026-04-26 19:08 28.32728 -81.14393 6630 ft 290 kts 102°
2026-04-26 19:08 28.32352 -81.12160 7431 ft 294 kts 102°
2026-04-26 19:08 28.31964 -81.09871 8256 ft 298 kts 102°
2026-04-26 19:09 28.31569 -81.07553 9135 ft 301 kts 102°
2026-04-26 19:09 28.31167 -81.05198 9984 ft 305 kts 102°
2026-04-26 19:09 28.30753 -81.02787 10549 ft 321 kts 102°
2026-04-26 19:09 28.30311 -81.00217 10872 ft 343 kts 102°
2026-04-26 19:10 28.29844 -80.97509 11380 ft 355 kts 102°
2026-04-26 19:10 28.29365 -80.94735 12061 ft 361 kts 101°
2026-04-26 19:10 28.28880 -80.91920 12774 ft 367 kts 101°
2026-04-26 19:10 28.28394 -80.89099 13515 ft 371 kts 101°
2026-04-26 19:11 28.27812 -80.86239 14238 ft 375 kts 108°
2026-04-26 19:11 28.26922 -80.83435 14889 ft 380 kts 112°
2026-04-26 19:11 28.25928 -80.80647 15547 ft 384 kts 113°
2026-04-26 19:11 28.24907 -80.77834 16210 ft 388 kts 113°
2026-04-26 19:12 28.23877 -80.74993 16864 ft 392 kts 113°
2026-04-26 19:12 28.22783 -80.72148 17523 ft 396 kts 117°
2026-04-26 19:12 28.21292 -80.69519 18147 ft 399 kts 131°
2026-04-26 19:12 28.19264 -80.67361 18695 ft 402 kts 147°
2026-04-26 19:13 28.16816 -80.65844 19247 ft 402 kts 159°
2026-04-26 19:13 28.14198 -80.64723 19829 ft 404 kts 164°
2026-04-26 19:13 28.11543 -80.63789 20416 ft 406 kts 167°
2026-04-26 19:13 28.08824 -80.62917 21019 ft 408 kts 167°
2026-04-26 19:14 28.06081 -80.62054 21610 ft 410 kts 167°
2026-04-26 19:14 28.03327 -80.61170 22153 ft 414 kts 166°
2026-04-26 19:14 28.00700 -80.59837 22848 ft 415 kts 149°
2026-04-26 19:14 27.99212 -80.58492 23435 ft 412 kts 137°
2026-04-26 19:15 27.96705 -80.55252 24411 ft 406 kts 131°
2026-04-26 19:15 27.94963 -80.52755 25106 ft 402 kts 129°
2026-04-26 19:15 27.93293 -80.50249 25814 ft 396 kts 128°
2026-04-26 19:15 27.91703 -80.47784 26510 ft 391 kts 128°
2026-04-26 19:16 27.90153 -80.45290 27200 ft 385 kts 127°
2026-04-26 19:16 27.88668 -80.42799 27874 ft 379 kts 125°
2026-04-26 19:16 27.87254 -80.40309 28532 ft 373 kts 124°
2026-04-26 19:16 27.85920 -80.37827 29166 ft 367 kts 122°
2026-04-26 19:17 27.84669 -80.35343 29783 ft 361 kts 121°
2026-04-26 19:17 27.83317 -80.32961 30086 ft 362 kts 133°
2026-04-26 19:17 27.81507 -80.30990 30216 ft 363 kts 149°
2026-04-26 19:17 27.79298 -80.29616 30334 ft 364 kts 165°
2026-04-26 19:18 27.76866 -80.28789 30461 ft 367 kts 171°
2026-04-26 19:18 27.71802 -80.27691 30660 ft 379 kts 175°
2026-04-26 19:18 27.69170 -80.27220 30778 ft 386 kts 175°
2026-04-26 19:19 27.66491 -80.26737 30879 ft 394 kts 175°
2026-04-26 19:19 27.63764 -80.26226 30984 ft 401 kts 175°
2026-04-26 19:19 27.60992 -80.25684 31103 ft 408 kts 174°
2026-04-26 19:19 27.58171 -80.25115 31222 ft 415 kts 174°
2026-04-26 19:20 27.55310 -80.24529 31332 ft 421 kts 174°
2026-04-26 19:20 27.49455 -80.23318 31552 ft 434 kts 174°
2026-04-26 19:20 27.46462 -80.22699 31654 ft 440 kts 174°
2026-04-26 19:21 27.43424 -80.22073 31776 ft 447 kts 174°
2026-04-26 19:21 27.40390 -80.21448 31880 ft 453 kts 174°
2026-04-26 19:21 27.37274 -80.20808 31993 ft 458 kts 174°
2026-04-26 19:21 27.34113 -80.20159 32156 ft 463 kts 174°
2026-04-26 19:22 27.30944 -80.19507 32423 ft 464 kts 174°
2026-04-26 19:22 27.27765 -80.18852 32761 ft 464 kts 174°
2026-04-26 19:22 27.24590 -80.18198 33108 ft 463 kts 174°
2026-04-26 19:22 27.21422 -80.17545 33450 ft 463 kts 174°
2026-04-26 19:23 27.18255 -80.16892 33780 ft 462 kts 174°
2026-04-26 19:23 27.15085 -80.16241 33969 ft 466 kts 174°
2026-04-26 19:23 27.11880 -80.15585 34079 ft 469 kts 174°
2026-04-26 19:23 27.08681 -80.14929 34464 ft 465 kts 174°
2026-04-26 19:24 27.05503 -80.14274 34776 ft 464 kts 174°
2026-04-26 19:24 27.02326 -80.13621 35010 ft 464 kts 174°
2026-04-26 19:24 26.96005 -80.12325 35449 ft 465 kts 174°
2026-04-26 19:25 26.92822 -80.11674 35683 ft 465 kts 174°
2026-04-26 19:25 26.90715 -80.11242 35826 ft 465 kts 174°
2026-04-26 19:25 26.86458 -80.10372 36137 ft 465 kts 174°
2026-04-26 19:25 26.83272 -80.09721 36345 ft 465 kts 174°
2026-04-26 19:26 26.80098 -80.09073 36681 ft 461 kts 173°
2026-04-26 19:26 26.76970 -80.08432 37216 ft 453 kts 173°
2026-04-26 19:26 26.73880 -80.07799 37507 ft 451 kts 173°
2026-04-26 19:26 26.70830 -80.07178 37695 ft 452 kts 173°
2026-04-26 19:27 26.67732 -80.06548 37855 ft 453 kts 173°
2026-04-26 19:27 26.64628 -80.05917 37939 ft 454 kts 173°
2026-04-26 19:27 26.58415 -80.04656 37944 ft 453 kts 173°
2026-04-26 19:28 26.52303 -80.02862 37945 ft 455 kts 166°
2026-04-26 19:28 26.46324 -80.00617 37950 ft 450 kts 164°
2026-04-26 19:29 26.40430 -79.98314 37954 ft 448 kts 163°
2026-04-26 19:29 26.34589 -79.96031 37952 ft 448 kts 164°
2026-04-26 19:30 26.28699 -79.93745 38141 ft 448 kts 164°
2026-04-26 19:30 26.25757 -79.92607 38340 ft 447 kts 164°
2026-04-26 19:30 26.23771 -79.91840 38472 ft 447 kts 164°
2026-04-26 19:31 26.19884 -79.90338 38674 ft 446 kts 164°
2026-04-26 19:31 26.16945 -79.89204 38746 ft 448 kts 164°
2026-04-26 19:31 26.11048 -79.86931 38929 ft 449 kts 164°
2026-04-26 19:32 26.05129 -79.84652 38949 ft 449 kts 164°
2026-04-26 19:32 25.99273 -79.82398 38950 ft 448 kts 164°
2026-04-26 19:33 25.93373 -79.80130 38948 ft 448 kts 164°
2026-04-26 19:33 25.87477 -79.77866 38946 ft 448 kts 165°
2026-04-26 19:34 25.81583 -79.75605 38950 ft 449 kts 165°
2026-04-26 19:34 25.75677 -79.73342 38950 ft 449 kts 165°
2026-04-26 19:35 25.69814 -79.71099 38955 ft 449 kts 165°
2026-04-26 19:35 25.63910 -79.68842 38955 ft 449 kts 165°
2026-04-26 19:36 25.59004 -79.66968 38955 ft 449 kts 165°
2026-04-26 19:36 25.52070 -79.64322 38956 ft 454 kts 166°
2026-04-26 19:37 25.46061 -79.62034 38954 ft 459 kts 166°
2026-04-26 19:37 25.40068 -79.59752 38955 ft 458 kts 166°
2026-04-26 19:38 25.34053 -79.57462 38956 ft 457 kts 166°
2026-04-26 19:38 25.28039 -79.55177 38955 ft 457 kts 166°
2026-04-26 19:39 25.22025 -79.52894 38954 ft 457 kts 166°
2026-04-26 19:39 25.16056 -79.50631 38955 ft 456 kts 166°
2026-04-26 19:40 25.10051 -79.48357 38958 ft 456 kts 166°
2026-04-26 19:40 25.04050 -79.46086 38955 ft 456 kts 166°
2026-04-26 19:41 24.98044 -79.43817 38957 ft 456 kts 166°
2026-04-26 19:41 24.93050 -79.41931 38953 ft 456 kts 167°
2026-04-26 19:42 24.86063 -79.39295 38958 ft 457 kts 167°
2026-04-26 19:42 24.80049 -79.37029 38962 ft 457 kts 167°
2026-04-26 19:43 24.74036 -79.34766 38963 ft 457 kts 167°
2026-04-26 19:43 24.68022 -79.32505 38962 ft 457 kts 167°
2026-04-26 19:44 24.62000 -79.30242 38944 ft 457 kts 168°
2026-04-26 19:44 24.56019 -79.27998 38956 ft 458 kts 168°
2026-04-26 19:45 24.49980 -79.25735 38960 ft 459 kts 168°
2026-04-26 19:45 24.43935 -79.23471 38958 ft 459 kts 168°
2026-04-26 19:46 24.37897 -79.21212 38964 ft 459 kts 168°
2026-04-26 19:46 24.31893 -79.18968 38964 ft 459 kts 168°
2026-04-26 19:47 24.26835 -79.17079 38970 ft 459 kts 168°
2026-04-26 19:47 24.19815 -79.14461 38969 ft 459 kts 168°
2026-04-26 19:48 24.13775 -79.12210 38968 ft 459 kts 168°
2026-04-26 19:48 24.07732 -79.09961 38970 ft 458 kts 168°
2026-04-26 19:49 24.01718 -79.07842 38960 ft 453 kts 175°
2026-04-26 19:49 23.98645 -79.07312 38939 ft 442 kts 185°
2026-04-26 19:49 23.95587 -79.07183 38954 ft 438 kts 187°
2026-04-26 19:50 23.89506 -79.07227 38960 ft 436 kts 189°
2026-04-26 19:50 23.83442 -79.07405 38960 ft 436 kts 189°
2026-04-26 19:51 23.77375 -79.07577 38963 ft 436 kts 189°
2026-04-26 19:51 23.71307 -79.07724 38963 ft 436 kts 189°
2026-04-26 19:52 23.65276 -79.07859 38956 ft 436 kts 189°
2026-04-26 19:52 23.59217 -79.07992 38957 ft 435 kts 189°
2026-04-26 19:53 23.53156 -79.08126 38957 ft 435 kts 189°
2026-04-26 19:53 23.47107 -79.08260 38957 ft 435 kts 189°
2026-04-26 19:54 23.41049 -79.08395 38958 ft 435 kts 189°
2026-04-26 19:54 23.35034 -79.08529 38937 ft 435 kts 189°
2026-04-26 19:55 23.28965 -79.08665 38955 ft 437 kts 189°
2026-04-26 19:55 23.22893 -79.08799 38955 ft 437 kts 189°
2026-04-26 19:56 23.16810 -79.08934 38952 ft 437 kts 189°
2026-04-26 19:56 23.10777 -79.09067 38949 ft 437 kts 189°
2026-04-26 19:57 23.04701 -79.09201 38913 ft 437 kts 190°
2026-04-26 19:57 22.98617 -79.09337 38945 ft 438 kts 190°
2026-04-26 19:58 22.92526 -79.09472 38953 ft 438 kts 190°
2026-04-26 19:58 22.86475 -79.09604 38950 ft 438 kts 190°
2026-04-26 19:59 22.80384 -79.09738 38942 ft 438 kts 190°
2026-04-26 19:59 22.74290 -79.09873 38943 ft 438 kts 190°
2026-04-26 20:00 22.68197 -79.10007 38937 ft 438 kts 190°
2026-04-26 20:00 22.62136 -79.10141 38941 ft 439 kts 190°
2026-04-26 20:01 22.56030 -79.10273 38938 ft 439 kts 190°
2026-04-26 20:01 22.49924 -79.10405 38938 ft 439 kts 190°
2026-04-26 20:02 22.43821 -79.10537 38933 ft 439 kts 190°
2026-04-26 20:02 22.38752 -79.10648 38924 ft 439 kts 190°
2026-04-26 20:03 22.31655 -79.10802 38928 ft 439 kts 190°
2026-04-26 20:03 22.25553 -79.10934 38927 ft 439 kts 190°
2026-04-26 20:04 22.19453 -79.11065 38923 ft 439 kts 189°
2026-04-26 20:04 22.13331 -79.11059 38918 ft 445 kts 183°
2026-04-26 20:05 22.07195 -79.10002 38908 ft 451 kts 177°
2026-04-26 20:05 22.01040 -79.08655 38920 ft 451 kts 176°
2026-04-26 20:06 21.94898 -79.07257 38924 ft 451 kts 176°
2026-04-26 20:06 21.88753 -79.05875 38921 ft 451 kts 176°
2026-04-26 20:07 21.82654 -79.04520 38922 ft 450 kts 176°
2026-04-26 20:07 21.76521 -79.03165 38921 ft 450 kts 176°
2026-04-26 20:08 21.70393 -79.01813 38918 ft 449 kts 176°
2026-04-26 20:08 21.64274 -79.00462 38925 ft 449 kts 176°
2026-04-26 20:09 21.58158 -78.99114 38926 ft 449 kts 176°
2026-04-26 20:09 21.52077 -78.97774 38925 ft 449 kts 176°
2026-04-26 20:10 21.45958 -78.96427 38924 ft 449 kts 176°
2026-04-26 20:10 21.39839 -78.95082 38924 ft 448 kts 176°
2026-04-26 20:11 21.33733 -78.93739 38925 ft 447 kts 176°
2026-04-26 20:12 21.24588 -78.91732 38926 ft 447 kts 176°
2026-04-26 20:12 21.18526 -78.90403 38926 ft 447 kts 176°
2026-04-26 20:13 21.12428 -78.89067 38928 ft 447 kts 176°
2026-04-26 20:13 21.06325 -78.87731 38926 ft 447 kts 176°
2026-04-26 20:14 21.00224 -78.86397 38930 ft 447 kts 176°
2026-04-26 20:14 20.94125 -78.85064 38932 ft 448 kts 176°
2026-04-26 20:15 20.88064 -78.83741 38932 ft 448 kts 176°
2026-04-26 20:15 20.81962 -78.82410 38928 ft 448 kts 176°
2026-04-26 20:16 20.75861 -78.81081 38918 ft 447 kts 176°
2026-04-26 20:16 20.69766 -78.79753 38925 ft 446 kts 176°
2026-04-26 20:16 20.66721 -78.79090 38817 ft 447 kts 176°
2026-04-26 20:17 20.63677 -78.78428 38585 ft 446 kts 176°
2026-04-26 20:17 20.60676 -78.77775 38320 ft 446 kts 176°
2026-04-26 20:17 20.57630 -78.77114 38049 ft 447 kts 176°
2026-04-26 20:17 20.55575 -78.76668 37869 ft 447 kts 176°
2026-04-26 20:18 20.51538 -78.75793 37516 ft 447 kts 176°
2026-04-26 20:18 20.48486 -78.75131 37256 ft 448 kts 176°
2026-04-26 20:18 20.45428 -78.74469 36998 ft 448 kts 176°
2026-04-26 20:18 20.42369 -78.73806 36722 ft 449 kts 176°
2026-04-26 20:19 20.39310 -78.73144 36474 ft 449 kts 176°
2026-04-26 20:19 20.36247 -78.72480 36230 ft 449 kts 176°
2026-04-26 20:19 20.33179 -78.71816 35979 ft 450 kts 176°
2026-04-26 20:19 20.30111 -78.71153 35735 ft 450 kts 176°
2026-04-26 20:20 20.27040 -78.70489 35495 ft 451 kts 176°
2026-04-26 20:20 20.24005 -78.69833 35260 ft 451 kts 176°
2026-04-26 20:20 20.20928 -78.69168 35020 ft 452 kts 176°
2026-04-26 20:20 20.17845 -78.68503 34792 ft 452 kts 176°
2026-04-26 20:21 20.14762 -78.67838 34568 ft 452 kts 176°
2026-04-26 20:21 20.11679 -78.67172 34325 ft 452 kts 176°
2026-04-26 20:21 20.08597 -78.66507 34075 ft 452 kts 175°
2026-04-26 20:21 20.05510 -78.65841 33836 ft 453 kts 176°
2026-04-26 20:22 20.02424 -78.65177 33581 ft 453 kts 175°
2026-04-26 20:22 19.99326 -78.64516 33321 ft 454 kts 176°
2026-04-26 20:22 19.96232 -78.63878 33066 ft 453 kts 176°
2026-04-26 20:22 19.93134 -78.63250 32812 ft 452 kts 176°
2026-04-26 20:23 19.90048 -78.62630 32561 ft 451 kts 176°
2026-04-26 20:23 19.87010 -78.62021 32317 ft 449 kts 176°
2026-04-26 20:23 19.83963 -78.61407 31950 ft 443 kts 176°
2026-04-26 20:23 19.80942 -78.60797 31424 ft 441 kts 176°
2026-04-26 20:24 19.77936 -78.60191 30886 ft 440 kts 176°
2026-04-26 20:24 19.74931 -78.59586 30318 ft 438 kts 176°
2026-04-26 20:24 19.71936 -78.58984 29744 ft 437 kts 176°
2026-04-26 20:24 19.68954 -78.58385 29136 ft 436 kts 175°
2026-04-26 20:25 19.65978 -78.57786 28577 ft 433 kts 175°
2026-04-26 20:25 19.64024 -78.57393 28211 ft 432 kts 175°
2026-04-26 20:25 19.60122 -78.56607 27462 ft 430 kts 175°
2026-04-26 20:25 19.57197 -78.56019 26912 ft 428 kts 175°
2026-04-26 20:26 19.54269 -78.55430 26329 ft 427 kts 174°
2026-04-26 20:26 19.51348 -78.54844 25761 ft 427 kts 174°
2026-04-26 20:26 19.48428 -78.54258 25188 ft 427 kts 174°
2026-04-26 20:26 19.45512 -78.53673 24613 ft 427 kts 173°
2026-04-26 20:27 19.42589 -78.53086 24030 ft 427 kts 173°
2026-04-26 20:27 19.39709 -78.52508 23447 ft 427 kts 173°
2026-04-26 20:27 19.36785 -78.51921 22754 ft 428 kts 173°
2026-04-26 20:27 19.33884 -78.51336 22283 ft 422 kts 173°
2026-04-26 20:28 19.31010 -78.50758 21757 ft 418 kts 173°
2026-04-26 20:28 19.28156 -78.50183 21231 ft 415 kts 172°
2026-04-26 20:28 19.25323 -78.49615 20640 ft 413 kts 172°
2026-04-26 20:28 19.22525 -78.49053 20190 ft 408 kts 172°
2026-04-26 20:29 19.19744 -78.48495 19626 ft 406 kts 172°
2026-04-26 20:29 19.17012 -78.47948 19126 ft 403 kts 172°
2026-04-26 20:29 19.14269 -78.47398 18617 ft 400 kts 172°
2026-04-26 20:29 19.11543 -78.46853 18110 ft 397 kts 172°
2026-04-26 20:30 19.08841 -78.46312 17570 ft 393 kts 172°
2026-04-26 20:30 19.06163 -78.45776 17039 ft 390 kts 172°
2026-04-26 20:30 19.03514 -78.45246 16522 ft 386 kts 172°
2026-04-26 20:30 19.00892 -78.44721 16021 ft 382 kts 172°
2026-04-26 20:31 18.98293 -78.44201 15530 ft 378 kts 172°
2026-04-26 20:31 18.95763 -78.43515 15038 ft 375 kts 160°
2026-04-26 20:31 18.93457 -78.42321 14548 ft 373 kts 153°
2026-04-26 20:31 18.91217 -78.40970 14083 ft 369 kts 151°
2026-04-26 20:32 18.89020 -78.39595 13575 ft 366 kts 150°
2026-04-26 20:32 18.86846 -78.38221 13059 ft 362 kts 150°
2026-04-26 20:32 18.84704 -78.36864 12385 ft 357 kts 150°
2026-04-26 20:32 18.82589 -78.35522 11640 ft 352 kts 150°
2026-04-26 20:33 18.80519 -78.34208 11111 ft 341 kts 150°
2026-04-26 20:33 18.78562 -78.32964 10838 ft 324 kts 150°
2026-04-26 20:33 18.76689 -78.31773 10553 ft 309 kts 150°
2026-04-26 20:33 18.74865 -78.30614 10062 ft 303 kts 150°
2026-04-26 20:34 18.73075 -78.29479 9571 ft 297 kts 150°
2026-04-26 20:34 18.71314 -78.28362 8935 ft 295 kts 150°
2026-04-26 20:34 18.69561 -78.27250 8337 ft 292 kts 150°
2026-04-26 20:34 18.67825 -78.26150 7774 ft 289 kts 150°
2026-04-26 20:35 18.66124 -78.25072 7372 ft 281 kts 150°
2026-04-26 20:35 18.64471 -78.24024 7007 ft 274 kts 150°
2026-04-26 20:35 18.62856 -78.23000 6653 ft 268 kts 150°
2026-04-26 20:35 18.61274 -78.21997 6300 ft 263 kts 150°
2026-04-26 20:36 18.59742 -78.21026 5951 ft 257 kts 150°
2026-04-26 20:36 18.58216 -78.20059 5619 ft 256 kts 150°
2026-04-26 20:36 18.56690 -78.19093 5289 ft 255 kts 150°
2026-04-26 20:36 18.55165 -78.18130 4963 ft 256 kts 150°
2026-04-26 20:37 18.53640 -78.17167 4633 ft 254 kts 150°
2026-04-26 20:37 18.52133 -78.16215 4301 ft 252 kts 150°
2026-04-26 20:37 18.50635 -78.15268 3979 ft 250 kts 150°
2026-04-26 20:37 18.49166 -78.14340 3671 ft 249 kts 150°
2026-04-26 20:38 18.47682 -78.13402 3361 ft 249 kts 150°
2026-04-26 20:38 18.46197 -78.12464 3077 ft 251 kts 150°
2026-04-26 20:38 18.44659 -78.11492 2990 ft 263 kts 148°
2026-04-26 20:38 18.43420 -78.10092 2992 ft 267 kts 116°
2026-04-26 20:39 18.43102 -78.08194 2987 ft 262 kts 84°
2026-04-26 20:39 18.43405 -78.07002 2993 ft 249 kts 67°
2026-04-26 20:39 18.44446 -78.04930 2837 ft 230 kts 63°
2026-04-26 20:39 18.45137 -78.03448 2487 ft 224 kts 66°
2026-04-26 20:40 18.45756 -78.01971 1993 ft 219 kts 66°
2026-04-26 20:40 18.46364 -78.00572 1681 ft 203 kts 65°
2026-04-26 20:40 18.46928 -77.99277 1432 ft 186 kts 65°
2026-04-26 20:40 18.47445 -77.98084 1208 ft 173 kts 64°
2026-04-26 20:41 18.47923 -77.96984 1003 ft 158 kts 65°
2026-04-26 20:41 18.48359 -77.95979 804 ft 143 kts 65°
2026-04-26 20:41 18.48755 -77.95064 633 ft 133 kts 63°
2026-04-26 20:41 18.49124 -77.94187 444 ft 127 kts 64°
2026-04-26 20:42 18.49464 -77.93349 254 ft 130 kts 61°
2026-04-26 20:42 18.49851 -77.92529 66 ft 123 kts 64°
2026-04-26 20:42 18.50171 -77.91783 17 ft 93 kts 65°
2026-04-26 20:42 18.50317 -77.91448 15 ft 7 kts 64°
2026-04-26 20:43 18.50352 -77.91372 15 ft 18 kts 64°
2026-04-26 20:43 18.50403 -77.91257 15 ft 17 kts 64°
2026-04-26 20:43 18.50450 -77.91142 14 ft 17 kts 68°
2026-04-26 20:43 18.50503 -77.91019 17 ft 23 kts 68°
2026-04-26 20:44 18.50538 -77.90853 16 ft 23 kts 89°
2026-04-26 20:44 18.50530 -77.90719 14 ft 8 kts 102°
2026-04-26 20:44 18.50486 -77.90685 14 ft 11 kts 184°
2026-04-26 20:44 18.50430 -77.90758 14 ft 17 kts 244°
2026-04-26 20:45 18.50374 -77.90888 14 ft 22 kts 246°
2026-04-26 20:45 18.50304 -77.91052 13 ft 27 kts 246°
2026-04-26 20:45 18.50221 -77.91248 13 ft 31 kts 245°
2026-04-26 20:45 18.50130 -77.91457 13 ft 31 kts 245°
2026-04-26 20:46 18.50043 -77.91656 14 ft 14 kts 245°
2026-04-26 20:46 18.49989 -77.91672 13 ft 9 kts 158°
2026-04-26 20:46 18.49960 -77.91659 13 ft 0 kts 155°
2026-04-26 20:46 18.49959 -77.91658 13 ft 0 kts 155°